Estación de La Piedad

Ultimos registro cada 15 minutos 47
Estación Fecha / Hora Temperatura Humedad Lluvia Velocidad Dirección Radiación Presion
47 La Piedad 09-05-2026 11:30 13,8 71 0 2,7 215 30 1019,9
46 La Piedad 09-05-2026 11:15 13 74 0 2,7 220 30 1019,8
45 La Piedad 09-05-2026 11:00 12,3 80 0 1,8 216 239 1019,9
44 La Piedad 09-05-2026 10:45 11,3 80 0 2,7 238 475 1019,9
43 La Piedad 09-05-2026 10:30 10,7 81 0 2,7 235 445 1020,2
42 La Piedad 09-05-2026 10:15 9,9 84 0 1,3 223 392 1020,3
41 La Piedad 09-05-2026 10:00 9 87 0 0,9 223 181 1019,9
40 La Piedad 09-05-2026 09:45 8,1 91 0 2,7 225 336 1020
39 La Piedad 09-05-2026 09:30 6,9 95 0 2,2 214 244 1019,9
38 La Piedad 09-05-2026 09:15 5,8 98 0 1,3 211 207 1020,1
37 La Piedad 09-05-2026 09:00 4,3 98 0 0 198 120 1020,2
36 La Piedad 09-05-2026 08:45 3,3 97 0 0 198 76 1020,5
35 La Piedad 09-05-2026 08:30 2,4 97 0 0 198 58 1020,3
34 La Piedad 09-05-2026 08:15 0,7 96 0 0 198 58 1020,5
33 La Piedad 09-05-2026 08:00 0,1 95 0 0 198 16 1020,5
32 La Piedad 09-05-2026 07:45 0,7 95 0 0 198 9 1020,4
31 La Piedad 09-05-2026 07:30 1,2 96 0 0 198 0 1020,5
30 La Piedad 09-05-2026 07:15 1,3 96 0 0 198 0 1020,4
29 La Piedad 09-05-2026 07:00 0,4 94 0 0 198 0 1020,4
28 La Piedad 09-05-2026 06:45 1,8 96 0 0 198 0 1020,4
27 La Piedad 09-05-2026 06:30 1,9 96 0 0 198 0 1020,5
26 La Piedad 09-05-2026 06:15 2 96 0 0 198 0 1020,6
25 La Piedad 09-05-2026 06:00 1,7 96 0 0,9 200 0 1020,9
24 La Piedad 09-05-2026 05:45 1,7 97 0 0,9 200 0 1020,7
23 La Piedad 09-05-2026 05:30 0,6 96 0 0 200 0 1020,8
22 La Piedad 09-05-2026 05:15 0,4 94 0 0 200 0 1020,8
21 La Piedad 09-05-2026 05:00 1,3 95 0 0 200 0 1020,7
20 La Piedad 09-05-2026 04:45 1,7 96 0 0 200 0 1020,8
19 La Piedad 09-05-2026 04:30 1,9 96 0 0 200 0 1020,7
18 La Piedad 09-05-2026 04:15 1,9 95 0 0 200 0 1020,8
17 La Piedad 09-05-2026 04:00 2,5 95 0 0 200 0 1020,9
16 La Piedad 09-05-2026 03:45 3,4 96 0 0 200 0 1020,8
15 La Piedad 09-05-2026 03:30 3,8 96 0 0 200 0 1020,9
14 La Piedad 09-05-2026 03:15 4,1 96 0 0 200 0 1020,8
13 La Piedad 09-05-2026 03:00 4,2 96 0 0 200 0 1021
12 La Piedad 09-05-2026 02:45 5 95 0 0 200 0 1021,1
11 La Piedad 09-05-2026 02:30 5,1 96 0 0,4 200 0 1021,3
10 La Piedad 09-05-2026 02:15 5,3 96 0 0,9 200 0 1021,3
9 La Piedad 09-05-2026 02:00 5,8 96 0 0 200 0 1021,4
8 La Piedad 09-05-2026 01:45 5,4 96 0 0 200 0 1021,7
7 La Piedad 09-05-2026 01:30 5,8 95 0 0 200 0 1021,8
6 La Piedad 09-05-2026 01:15 6,3 95 0 0 200 0 1021,7
5 La Piedad 09-05-2026 01:00 6,4 95 0 0 200 0 1021,8
4 La Piedad 09-05-2026 00:45 7 95 0 0,9 200 0 1021,8
3 La Piedad 09-05-2026 00:30 7,7 95 0 0,9 200 0 1021,8
2 La Piedad 09-05-2026 00:15 8,3 95 0 2,2 200 0 1021,6
1 La Piedad 09-05-2026 00:00 8,8 95 0 3,1 185 0 1021,7